DW3471 Weather Reports


time (UTC)temp
C
wind
direction
speed
KPH
gust
KPH
rain 1hr
cm
rain 24hr
cm
rain mn
cm
humidity
%
barometer
mb
20260510175116 26 287 3.2 6.4 0.00 0.00 0.00 52 1012.9
20260510174115 26 235 1.6 6.4 0.00 0.00 0.00 48 1012.9
20260510173115 26 294 0.0 0.0 0.00 0.00 0.00 53 1012.9
20260510172114 25 292 0.0 6.4 0.00 0.00 0.00 53 1012.8
20260510171113 25 314 3.2 6.4 0.00 0.00 0.00 53 1012.8
20260510170112 25 13 3.2 11.3 0.00 0.00 0.00 54 1012.8
20260510165112 25 47 1.6 3.2 0.00 0.00 0.00 53 1012.8
20260510164111 24 354 3.2 4.8 0.00 0.00 0.00 54 1012.8
20260510163110 23 306 3.2 6.4 0.00 0.00 0.00 53 1012.8
20260510162110 23 31 3.2 4.8 0.00 0.00 0.00 60 1013.1
20260510161109 23 38 0.0 6.4 0.00 0.00 0.00 58 1012.7
20260510160108 23 321 0.0 0.0 0.00 0.00 0.00 59 1012.7
20260510155108 22 292 0.0 0.0 0.00 0.00 0.00 62 1013.0
20260510154036 22 11 0.0 0.0 0.00 0.00 0.00 64 1013.0
20260510153035 21 9 0.0 0.0 0.00 0.00 0.00 67 1013.0
20260510152034 21 323 0.0 3.2 0.00 0.00 0.00 72 1013.0
20260510151034 21 317 0.0 3.2 0.00 0.00 0.00 74 1013.0
20260510145931 20 43 0.0 3.2 0.00 0.00 0.00 76 1012.9
20260510144931 18 315 1.6 3.2 0.00 0.00 0.00 79 1013.2
20260510143930 17 355 1.6 4.8 0.00 0.00 0.00 82 1013.1
20260510142859 18 339 3.2 3.2 0.00 0.00 0.00 88 1012.8
20260510141858 17 5 0.0 0.0 0.00 0.00 0.00 91 1012.8
20260510140857 17 11 0.0 0.0 0.00 0.00 0.00 93 1012.8
20260510135856 16 13 0.0 0.0 0.00 0.00 0.00 95 1012.8
20260510134856 15 21 0.0 0.0 0.00 0.00 0.00 95 1012.7
20260510133855 15 21 0.0 0.0 0.00 0.00 0.00 95 1012.7
20260510132855 14 289 0.0 0.0 0.00 0.00 0.00 95 1012.6
20260510131854 13 280 0.0 0.0 0.00 0.00 0.00 95 1012.6
20260510130853 13 281 0.0 0.0 0.00 0.00 0.00 95 1012.6
20260510125852 12 281 0.0 0.0 0.00 0.00 0.00 95 1012.9
20260510124821 12 281 0.0 0.0 0.00 0.00 0.00 95 1012.9
20260510123820 12 257 0.0 0.0 0.00 0.00 0.00 95 1012.5
20260510122748 12 45 0.0 0.0 0.00 0.00 0.00 95 1012.5
20260510121748 12 45 0.0 0.0 0.00 0.00 0.00 95 1012.2
20260510120747 12 342 0.0 0.0 0.00 0.00 0.00 95 1012.2
20260510115746 11 326 0.0 0.0 0.00 0.00 0.00 95 1011.8
20260510114745 11 326 0.0 0.0 0.00 0.00 0.00 95 1011.8
20260510113745 11 326 0.0 0.0 0.00 0.00 0.00 95 1012.1
20260510112744 11 306 0.0 0.0 0.00 0.00 0.00 95 1011.5
20260510111744 11 306 0.0 0.0 0.00 0.00 0.00 95 1011.8
20260510110743 11 304 0.0 0.0 0.00 0.00 0.00 95 1011.8